STARLINK-31861, 59906

Orbit data source: Space-Track

STARLINK-31861, 59906 is a payload satellite owned by SpaceX/Seattle (US) in LEO that was launched on Tue, 28 May 2024 UTC via an FALCON 9 launch vehicle from the Air Force Eastern Test Range (AFETR). Payload-class satellites include a variety of spacecraft equipped with specific instruments for various scientific and technological missions. These include communications satellites like Starlink; space stations such as the ISS; scientific satellites like the Hubble; Earth observation satellites from companies like Planet Labs, Umbra, and HawkEye 360; GPS; miniature CubeSats for education and research; and military/defense satellites.

Loading next visibility...
Identifier
59906, 2024-100X
Orbit
LEO
Country
Flag of USUS
Related business
Manufacturer
SpaceX/Seattle
Mission
Operational Commercial Communications
Bus & Motor
STARLINK V2M, Unknown motor
Mass
730 kg wet, ~700 kg dry
Launch date (UTC)
2024-05-28 (2 years ago)
Launch vehicle
FALCON 9
Launch site
Air Force Eastern Test Range (AFETR)
Object type
Payload
Rocket body
Debris
Shape & HBR
Box + 2 Pan, 17.7 m
Radar Cross Section
33.884 m², Large (>1 m²)

Expand to show TLE details & history
Last TLE update: 22 hours ago

TLE from 22 hours ago
0 STARLINK-31861
1 59906U 24100X   25354.01321892  .00000336  00000-0  21748-4 0  9999
2 59906  43.0002 208.2210 0001190 265.2763  94.7953 15.27576644 89042
Epoch: 2025-12-20T00:19Z
TLE epoch observation values (Epoch: 2025-12-20T00:19:02.114Z)
Latitude
-0.00001°
Longitude
114.61606°
Altitude
482.903 km
Speed
7.626 km/s
True Right ascension
13h 52m 53s
True Declination
0° 00' 00"
Sunlit
Object was in daylight at epoch
Visualization orbit readout
Latitude
Unknown
Longitude
Unknown
Altitude
Unknown
Speed
Unknown
Apparent Right ascension
Unknown
Apparent Declination
Unknown
Sunlit
N/A
Visualization observer readout
Local Sidereal Time
21:33:47
Azimuth
Unknown
Elevation
Unknown
Doppler factor
Unknown
Orbital elements
Apogee altitude
485.821 km
Perigee altitude
484.188 km
Semi-major axis
6,863.141 km
Eccentricity
0.00012
Inclination
43.0002°
RAAN
208.221°
Arg. of periapsis
265.2763°
True anomaly
94.80889°
Mean anomaly
94.7953°
Eccentric anomaly
94.80209°
Mean motion
3.81732 °/min
Orbital period
94.31 mins
BSTAR
0.000021748
Loading maneuver chart data...
Computing Atmospheric mass density...
Loading historical data...
Loading historical data...
Loading historical data...
Loading historical data...
Loading historical data...
Loading historical data...
Loading historical data...

Documentation

Showing up to 5 results
|